Regional Weather Roundup
Issued by NWS Kansas City/Pleasant Hill, MO

Home | Current Version | Previous Version | Text Only | Print | Product List | Glossary On
Versions: 1 2 3 4 5 6 7 8 9 10 11 12 13 14 15 16 17 18 19 20 21 22 23 24 25 26 27 28 29 30 31 32 33 34 35 36 37 38 39 40 41 42 43 44 45 46 47 48 49 50
000
ASUS43 KEAX 270910
RWREAX

WEATHER ROUNDUP FOR EASTERN KANSAS AND NORTHWEST MISSOURI
NATIONAL WEATHER SERVICE KANSAS CITY/PLEASANT HILL MO
300 AM CST SAT DEC 27 2014

KSZ040-057-103>105-MOZ028-029-037-043-271000-
...KANSAS CITY METROPOLITAN AREA...

CITY           SKY/WX    TMP DP  RH WIND       PRES   REMARKS
K.C. INTL      CLOUDY    34  32  92 W9        30.06F WCI  27
K.C. DOWNTOWN  CLOUDY    37  31  78 W8        30.09R WCI  31
LEES SUMMIT    CLOUDY    36  32  85 W16G22    30.08R WCI  26
OLATHE - IXD   MOCLDY    34  30  85 W10       30.11R WCI  26
OLATHE - OJC   MOCLDY    34  30  85 W7        30.09R WCI  28
LAWRENCE       CLOUDY    34  30  85 W14       30.10S WCI  25

$$

MOZ001>008-011>017-020>025-030>033-038>040-044>046-053-054-271000-
...NORTHERN AND CENTRAL MISSOURI...

CITY           SKY/WX    TMP DP  RH WIND       PRES   REMARKS
ST. JOSEPH     CLOUDY    34  32  92 W10       30.08S WCI  26
MOSBY          CLOUDY    36  32  87 W13G20    30.07F WCI  27
WARRENSBURG    CLOUDY    37  34  87 W13G22    30.06R WCI  29
WHITEMAN AFB   CLOUDY    40  39  95 W15       30.04S WCI  32
CLINTON        CLOUDY    41  39  93 W10       30.07R FOG     WCI  35
SEDALIA        CLOUDY    43  41  93 W10       30.05R FOG
WARSAW         NOT AVBL
MARSHALL       CLOUDY    43  41  93 W10       30.05R FOG
CHILLICOTHE      N/A     38  35  89 W10       30.05R WCI  31
KIRKSVILLE     CLOUDY    43  43 100 W14G25    29.97R FOG

$$

MOZ041-047>049-056>058-063>065-088>090-097-271000-
...EASTERN AND SOUTHERN MISSOURI...

CITY           SKY/WX    TMP DP  RH WIND       PRES   REMARKS
ST. LOUIS INTL CLOUDY    50  46  87 S6        30.05S
SPIRIT OF STL  CLOUDY    49  46  90 CALM      30.04S
COLUMBIA       LGT RAIN  50  48  93 S10       30.01R
JEFFERSON CITY CLOUDY    51  47  86 SE5       30.02R
MEXICO         CLOUDY   N/A N/A N/A S10       29.99S
HANNIBAL       CLOUDY    50  45  81 S10G16    29.98S
ROLLA          CLOUDY    48  46  93 S10       30.02R
LEBANON        CLOUDY    50  48  93 SW5       30.04R
OSAGE BEACH    CLOUDY    50  46  87 S8        30.03R
SPRINGFIELD    CLOUDY    50  48  93 S5        30.03R FOG
BRANSON        CLOUDY    50  48  93 CALM      30.05S
NEVADA         CLOUDY    37  36  93 W12G17    30.11R FOG     WCI  30
JOPLIN         CLOUDY    40  38  93 NW8       30.10R WCI  34
WEST PLAINS    FOG       47  46  97 S5        30.07S VSB 1/2

$$

IAZ060-094-KSZ022-034>040-054-083-096-NEZ052-066-093-271000-
...KANSAS...SOUTHEAST NEBRASKA AND IOWA...

CITY           SKY/WX    TMP DP  RH WIND       PRES   REMARKS
TOPEKA         CLOUDY    35  31  85 W12       30.12R WCI  27
MANHATTAN      CLOUDY    28  22  78 NW10G17   30.16R WCI  19
EMPORIA        CLOUDY    31  28  89 NW15G23   30.12R WCI  20
CHANUTE        CLOUDY    35  30  82 NW17      30.13F WCI  25
WICHITA        CLOUDY    31  24  75 NW17      30.18R WCI  19
OMAHA          FLURRIES  27  24  89 NW14      30.10R WCI  16
LINCOLN        MOCLDY    25  20  81 NW14      30.14R WCI  13
FALLS CITY     CLOUDY    32  29  88 NW13      30.09R WCI  22
LAMONI         CLOUDY    33  32  96 W16       30.00R WCI  23
DES MOINES     LGT SNOW  34  32  92 W12       29.99R FOG     WCI  25

$$



USA.gov is the U.S. government's official web portal to all federal, state and local government web resources and services.